User: anonymous   Login
Location: Unspecified
(0.0000°N, 0.0000°E)
Time: 23:13:50
(UTC+01:00)
Language:

Meteor 2-8 Rocket - Orbit

View from above orbital plane
View from above orbital plane
View from above satellite
View from above satellite

Ground track
Ground track

The orbit data is extracted from the following two-line orbital elements,

1 13114U 82025B   15087.50980005  .00000031  00000-0  14864-4 0  9996
2 13114 082.5384 128.6324 0013184 270.0214 199.4440 13.84640076668089
Epoch (UTC): 28 March 2015 12:14:06
Eccentricity: 0.0013184
inclination: 82.5384°
perigee height: 938 km
apogee height: 957 km
right ascension of ascending node: 128.6324°
argument of perigee: 270.0214°
revolutions per day: 13.84640076
mean anomaly at epoch: 199.4440°
orbit number at epoch: 66808

The dashed part of the orbit path shows where the satellite is in the earth's shadow,  

DLR